This is the latest recevied weather packets stored in our database for station/object K1LVA. If no packets are shown the sender has not sent any weather packets the latest 10 day(s).
| Time | Temp. | Humidity | Pressure | Rain* | Wind** | Luminosity | Snow |
|---|---|---|---|---|---|---|---|
| 1777716575 | 13.33° C | 99% | 1010.5 hPa | 1.27 mm | - | 0 W/m² | - |
| 1777716274 | 13.33° C | 99% | 1010.7 hPa | 0 mm | - | 0 W/m² | - |
| 1777715972 | 13.33° C | 99% | 1011.1 hPa | 0 mm | - | 0 W/m² | - |
| 1777715669 | 13.33° C | 99% | 1011 hPa | 1.78 mm | - | 0 W/m² | - |
| 1777715367 | 13.33° C | 99% | 1011 hPa | 3.05 mm | - | 0 W/m² | - |
| 1777715064 | 13.33° C | 99% | 1011.4 hPa | 1.27 mm | - | 0 W/m² | - |
| 1777714761 | 13.33° C | 99% | 1011.2 hPa | 1.78 mm | - | 0 W/m² | - |
| 1777714460 | 13.33° C | 99% | 1011.2 hPa | 1.78 mm | - | 0 W/m² | - |
| 1777714157 | 13.33° C | 99% | 1011.3 hPa | 1.27 mm | - | 0 W/m² | - |
| 1777713855 | 13.89° C | 99% | 1011.3 hPa | 3.05 mm | - | 0 W/m² | - |
| 1777713553 | 13.89° C | 99% | 1011.5 hPa | 3.05 mm | - | 0 W/m² | - |
| 1777713248 | 13.89° C | 99% | 1011.9 hPa | 1.27 mm | - | 0 W/m² | - |
| 1777712945 | 14.44° C | 99% | 1011.8 hPa | 1.78 mm | - | 0 W/m² | - |
| 1777712642 | 14.44° C | 99% | 1011.8 hPa | 1.78 mm | - | 0 W/m² | - |
| 1777712339 | 14.44° C | 99% | 1011.7 hPa | 1.27 mm | - | 0 W/m² | - |
| 1777712035 | 14.44° C | 99% | 1011.7 hPa | 3.05 mm | - | 0 W/m² | - |
| 1777711732 | 14.44° C | 99% | 1011.9 hPa | 3.05 mm | - | 0 W/m² | - |
| 1777711428 | 14.44° C | 99% | 1012 hPa | 3.05 mm | - | 0 W/m² | - |
| 1777711124 | 14.44° C | 99% | 1012 hPa | 3.56 mm | - | 0 W/m² | - |
| 1777710821 | 14.44° C | 99% | 1011.9 hPa | 3.05 mm | - | 0 W/m² | - |
| 1777710518 | 14.44° C | 99% | 1012.1 hPa | 4.32 mm | - | 0 W/m² | - |
| 1777710215 | 14.44° C | 99% | 1012.2 hPa | 3.05 mm | - | 0 W/m² | - |
| 1777709912 | 14.44° C | 99% | 1012 hPa | 3.05 mm | - | 0 W/m² | - |
| 1777709610 | 14.44° C | 99% | 1011.8 hPa | 3.05 mm | - | 0 W/m² | - |
| 1777709306 | 14.44° C | 99% | 1011.9 hPa | 3.05 mm | - | 0 W/m² | - |
* Rain latest hour (hover to see other rain measurements)
** Current wind speed in m/s (hover to see current wind gust speed)